| DS18B20 | SHTC3 | ||||||
|---|---|---|---|---|---|---|---|
| ID | Date d/m/Y & Time | data1 สูง | data2 ต่ำ | data3 นอก | temp pcb | hum pcb | Time |
| 9122 | 05/04/2026 20:07:11 | 30.2  | 30.1  | 29.7  | 30.1  | 68.8  | 20:07 |
| 9121 | 05/04/2026 20:02:29 | 30.3  | 30.1  | 29.5  | 30.4  | 68.5  | 20:02 |
| 9120 | 05/04/2026 19:57:46 | 30.3  | 30.1  | 29.7  | 30.3  | 68.5  | 19:57 |
| 9119 | 05/04/2026 19:53:05 | 30.4  | 30.1  | 29.6  | 30.4  | 68.5  | 19:53 |
| 9118 | 05/04/2026 19:48:23 | 30.4  | 30.1  | 29.7  | 30.4  | 68.5  | 19:48 |
| 9117 | 05/04/2026 19:43:42 | 30.4  | 30.2  | 29.7  | 30.5  | 68.3  | 19:43 |
| 9116 | 05/04/2026 19:39:00 | 30.5  | 30.2  | 29.9  | 30.1  | 68.2  | 19:39 |
| 9115 | 05/04/2026 19:34:19 | 30.6  | 30.4  | 30.1  | 30.5  | 68.3  | 19:34 |
| 9114 | 05/04/2026 19:29:37 | 30.6  | 30.4  | 30.1  | 30.4  | 68.0  | 19:29 |
| 9113 | 05/04/2026 19:24:56 | 30.6  | 30.4  | 30.0  | 30.5  | 68.0  | 19:24 |
| 9112 | 05/04/2026 19:20:14 | 30.6  | 30.5  | 30.0  | 30.5  | 68.1  | 19:20 |
| 9111 | 05/04/2026 19:15:32 | 30.6  | 30.6  | 30.1  | 30.6  | 68.0  | 19:15 |
| 9110 | 05/04/2026 19:10:50 | 30.7  | 30.6  | 30.2  | 30.7  | 67.8  | 19:10 |
| 9109 | 05/04/2026 19:06:08 | 30.8  | 30.6  | 30.1  | 30.6  | 67.5  | 19:06 |
| 9108 | 05/04/2026 19:01:27 | 30.8  | 30.6  | 30.3  | 30.7  | 67.4  | 19:01 |
| 9107 | 05/04/2026 18:56:45 | 30.9  | 30.6  | 30.2  | 31.0  | 67.2  | 18:56 |
| 9106 | 05/04/2026 18:52:04 | 30.9  | 30.7  | 30.3  | 30.6  | 66.6  | 18:52 |
| 9105 | 05/04/2026 18:47:22 | 31.0  | 30.8  | 30.4  | 30.9  | 66.5  | 18:47 |
| 9104 | 05/04/2026 18:42:40 | 31.0  | 30.8  | 30.2  | 31.0  | 65.9  | 18:42 |
| 9103 | 05/04/2026 18:37:58 | 31.1  | 30.8  | 30.4  | 30.8  | 65.5  | 18:37 |
| 9102 | 05/04/2026 18:33:15 | 31.2  | 30.9  | 30.5  | 31.1  | 65.3  | 18:33 |
| 9101 | 05/04/2026 18:28:34 | 31.2  | 31.1  | 30.6  | 31.1  | 65.7  | 18:28 |
| 9100 | 05/04/2026 18:23:50 | 31.4  | 31.0  | 30.7  | 31.0  | 66.0  | 18:23 |
| 9099 | 05/04/2026 18:19:09 | 31.4  | 31.0  | 30.7  | 31.2  | 65.8  | 18:19 |